#timestamp,LO_Frequency,Hit,StdDev 
1595530815.4,286047000.9,N
1595530835.2,286047002.7,N
1595530855.1,286047002.2,N
1595530856.0,286047002.2,N
1595530875.8,286047002.0,N
1595530895.7,286046999.7,N
1595530915.5,286047004.4,N
1595530935.3,286047005.6,Y
1595530955.2,286047003.8,P
1595530975.0,286047003.5,P
1595530975.9,286047003.5,P
1595530995.8,286047003.7,Y
1595531015.6,286047000.6,P
1595531035.4,286047002.6,N
1595531055.3,286047004.0,P
1595531075.1,286047001.9,N
1595531095.8,286047002.1,N
1595531115.7,286047004.2,Y
1595531135.5,286047002.6,P
1595531155.4,286047002.7,P
1595531175.2,286047001.5,P
1595531195.0,286047003.7,Y
1595531195.9,286047003.7,P
1595531215.8,286047002.0,N
1595531235.6,286047002.0,N
1595531255.4,286047002.0,N
1595531275.3,286047001.3,N
1595531295.1,286047003.8,Y
1595531315.9,286047000.1,P
1595531335.7,286047002.3,N
1595531355.5,286047002.3,N
1595531375.4,286047000.5,N
1595531395.2,286047002.4,N
1595531415.1,286047001.7,N
1595531416.0,286047001.7,N
1595531435.8,286047001.4,N
1595531455.6,286047004.3,Y
1595531475.5,286047001.3,P
1595531495.3,286047003.9,P
1595531515.1,286047001.9,N
1595531535.9,286047002.2,N
1595531555.7,286047001.6,N
1595531575.6,286047001.5,N
1595531595.4,286047004.2,Y
1595531615.2,286047002.7,P
1595531635.1,286047002.6,P
1595531636.0,286047002.6,P
1595531655.8,286047001.5,Y
1595531675.6,286047002.7,P
1595531695.5,286047001.5,P
1595531715.3,286047003.4,P
1595531735.2,286047006.0,Y
1595531755.9,286047002.8,P
1595531775.7,286047001.9,P
1595531795.6,286047001.7,P
1595531815.4,286047001.4,Y
1595531835.3,286047002.7,P
1595531855.1,286047002.0,P
1595531856.0,286047002.0,P
1595531875.8,286047001.7,Y
1595531895.7,286046999.7,P
1595531915.5,286047002.7,N
1595531935.3,286046999.8,N
1595531955.2,286047002.8,N
1595531975.0,286047002.7,N
1595531975.9,286047002.7,N
1595531995.8,286047000.0,N
1595532015.6,286047002.8,N
1595532035.4,286047000.5,N
1595532055.3,286046998.6,N
1595532075.1,286046998.3,N
1595532095.9,286047000.7,N
1595532115.7,286046999.3,N
1595532135.5,286046998.7,N
1595532155.4,286046998.6,N
1595532175.2,286047000.4,N
1595532195.0,286047000.1,N
1595532195.9,286047000.1,N
1595532215.8,286046999.7,N
1595532235.6,286047002.7,N
1595532255.5,286047001.6,N
1595532275.3,286047001.6,N
1595532295.1,286047004.1,N
1595532315.9,286047003.2,N
1595532335.7,286047003.4,N
1595532355.5,286047003.1,N
1595532375.4,286047005.8,Y
1595532395.2,286047003.0,P
1595532415.1,286047003.3,P
1595532416.0,286047003.3,P
1595532435.8,286047003.4,Y
1595532455.6,286047002.5,P
1595532475.5,286047001.3,P
1595532495.3,286047001.3,N
1595532515.1,286047001.5,N
1595532535.9,286047001.4,N
1595532555.7,286047001.8,Y
1595532575.6,286047000.7,P
1595532595.4,286047000.7,N
1595532615.2,286047002.7,P
1595532635.1,286047002.3,N
1595532636.0,286047002.3,N
1595532655.8,286047004.4,Y
1595532675.6,286047002.3,P
1595532695.5,286047000.0,N
1595532715.3,286047002.3,N
1595532735.2,286047000.0,N
1595532755.9,286047000.5,N
1595532775.7,286047000.9,N
1595532795.6,286046998.1,N
1595532815.4,286047000.6,N
1595532835.2,286047000.6,N
1595532855.1,286046999.8,N
1595532856.0,286046999.8,N
1595532875.8,286047002.8,N
1595532895.7,286046999.9,N
1595532915.5,286047000.0,N
1595532935.3,286046999.7,N
1595532955.2,286047002.3,N
1595532975.0,286047001.3,N
1595532975.9,286047001.3,N
1595532995.7,286047001.7,N
1595533015.6,286047004.4,Y
1595533035.4,286047003.2,P
1595533055.3,286047003.5,N
1595533075.1,286047005.9,P
1595533095.8,286047005.8,Y
1595533115.7,286047000.9,P
1595533135.5,286047001.0,N
1595533155.4,286047000.4,N
1595533175.2,286047000.3,N
1595533195.0,286046999.9,N
1595533195.9,286046999.9,N
1595533215.8,286047002.3,N
1595533235.6,286047002.6,N
1595533255.4,286047001.4,N
1595533275.3,286047001.9,N
1595533295.1,286047001.8,N
1595533315.9,286047001.6,N
1595533335.7,286047001.6,N
1595533355.5,286046999.8,N
1595533375.4,286047000.3,N
1595533395.2,286047002.7,N
1595533415.0,286046999.7,N
1595533415.9,286046999.7,N
1595533435.8,286047000.2,N
1595533455.6,286047002.8,N
1595533475.5,286047002.6,N
1595533495.3,286047002.7,N
1595533515.1,286047001.7,N
1595533535.9,286047001.4,N
1595533555.7,286047002.3,N
1595533575.5,286047000.3,N
1595533595.4,286047000.7,N
1595533615.2,286047000.8,N
1595533635.1,286046999.9,N
1595533636.0,286046999.9,N
1595533655.8,286047002.6,N
1595533675.6,286047000.1,N
1595533695.5,286047000.1,N
1595533715.3,286046999.7,N
1595533735.2,286047002.0,N
1595533755.9,286047001.9,N
1595533775.7,286047001.7,N
1595533795.6,286047002.0,N
1595533815.4,286047002.2,N
1595533835.2,286047002.0,N
1595533855.1,286047001.9,N
1595533856.0,286047001.9,N
1595533875.8,286047002.1,N
1595533895.7,286047000.8,N
1595533915.5,286047001.2,N
1595533935.3,286047001.1,N
1595533955.2,286046998.6,N
1595533975.0,286046999.5,N
1595533975.9,286046999.5,N
1595533995.7,286046997.8,N
1595534015.6,286046995.4,Y
1595534035.4,286046996.1,P
1595534055.3,286046995.8,N
1595534075.1,286046996.3,N
1595534076.0,286046996.3,N
1595534095.8,286046994.4,N
1595534115.7,286046992.5,Y
1595534135.5,286046995.9,P
1595534155.4,286046993.8,P
1595534175.2,286046993.9,P
1595534195.0,286046994.1,Y
1595534195.9,286046994.1,P
1595534215.8,286046999.6,N
1595534235.6,286046998.8,N
1595534255.4,286046996.9,N
1595534275.3,286046998.9,N
1595534295.1,286046997.0,N
1595534315.9,286046996.8,N
1595534335.7,286046996.5,N
1595534355.5,286046996.6,N
1595534375.4,286046996.9,N
1595534395.2,286046999.6,N
